Darstellungsparameter: Aktuell verwendete Einstellungen:
Skalierung der Graphiken ... ?
xyx+y,   Skalierungsfaktor:      Skalierung: Modus: x, Faktor: 1
Darstellungszeitraum ... ?
Vom - - bis: - -   Zeitraum: 05.04.2020 - 07.04.2020
Min/Max/Avg-Anzeige ... ?
Zeige MMA aktuell
Zeige MMA Monat
Zeige MMA alles
Zeige --A aktuell
Zeige --A Monat
Zeige --A alles
Keine MMA-Anzeige
MMA:
Average (ber die Originaldaten)
MMA-Basis: 05.04.2020 - 07.04.2020
Quicknavigation für Darstellung... ?
Tage:      1T, 2T, 3T, 5T -1T -2T -3T -5T +1T +2T +3T +5T
Wochen: 1W, 2W, 3W -1W -2W -3W +1W +2W +3W
Monate: 1M, 3M, 6M -1M -3M -6M +1M +3M +6M
Jahre:    1J, 3J, 5J, 10J -1J -3J -5J -10J +1J +3J +5J +10J
Nutze für die Darstellung ... ?
Originaldaten oder Mittelwerte auf ...
Stundenbasis Tagesbasis Wochenbasis
Monatsbasis Jahresbasis      Datenbasis: Original-Daten
Darstellen als:
Statistik (Auto) Statistik J:M      Darstellung:
Zur Graphik,    zurück zur Übersicht aller Sensoren.
 
Tabellarische Datenbersicht: ?
 
Sensor: Nr:Datum:Temp:Abs-Feuchte:Windchill:Wind:
Aussen-T/F 1 05-04-2020 00:00:00 4.1 C 4.99 g/m*3 4.1 C 0 km/h
2 05-04-2020 00:05:00 4 C 4.96 g/m*3 4 C 0 km/h
3 05-04-2020 00:10:00 3.9 C 4.99 g/m*3 3.9 C 0 km/h
4 05-04-2020 00:15:00 3.8 C 4.96 g/m*3 3.8 C 0 km/h
5 05-04-2020 00:20:00 3.7 C 4.99 g/m*3 3.7 C 0 km/h
6 05-04-2020 00:25:00 3.6 C 5.01 g/m*3 3.6 C 0 km/h
7 05-04-2020 00:30:00 3.5 C 4.98 g/m*3 3.5 C 0 km/h
8 05-04-2020 00:35:00 3.4 C 4.95 g/m*3 3.4 C 0 km/h
9 05-04-2020 00:40:00 3.3 C 4.97 g/m*3 3.3 C 0 km/h
10 05-04-2020 00:45:00 3.3 C 4.97 g/m*3 3.3 C 0 km/h
11 05-04-2020 00:50:00 3.3 C 4.97 g/m*3 3.3 C 0 km/h
12 05-04-2020 00:55:00 3.2 C 4.94 g/m*3 3.2 C 0 km/h
13 05-04-2020 01:00:00 3.1 C 4.91 g/m*3 3.1 C 0 km/h
14 05-04-2020 01:05:00 3.1 C 4.97 g/m*3 3.1 C 0 km/h
15 05-04-2020 01:10:00 2.9 C 4.9 g/m*3 2.9 C 0 km/h
16 05-04-2020 01:15:00 2.9 C 4.96 g/m*3 2.9 C 0 km/h
17 05-04-2020 01:20:00 2.9 C 4.96 g/m*3 2.9 C 0 km/h
18 05-04-2020 01:25:00 2.9 C 4.96 g/m*3 2.9 C 0 km/h
19 05-04-2020 01:30:00 2.9 C 5.02 g/m*3 2.9 C 0 km/h
20 05-04-2020 01:35:00 2.9 C 5.02 g/m*3 2.9 C 0 km/h
21 05-04-2020 01:40:00 2.9 C 4.96 g/m*3 2.9 C 0 km/h
22 05-04-2020 01:45:00 2.8 C 4.93 g/m*3 2.8 C 0 km/h
23 05-04-2020 01:50:00 2.8 C 4.99 g/m*3 2.8 C 0 km/h
24 05-04-2020 01:55:00 2.7 C 4.89 g/m*3 2.7 C 0 km/h
25 05-04-2020 02:00:00 2.6 C 4.92 g/m*3 2.6 C 0 km/h
Sensor: Nr:Datum:Temp:Abs-Feuchte:Windchill:Wind:
Aussen-T/F 26 05-04-2020 02:05:00 2.5 C 4.89 g/m*3 2.5 C 0 km/h
27 05-04-2020 02:10:00 2.4 C 4.91 g/m*3 2.4 C 0 km/h
28 05-04-2020 02:15:00 2.3 C 4.88 g/m*3 2.3 C 0 km/h
29 05-04-2020 02:20:00 2.3 C 4.93 g/m*3 2.3 C 0 km/h
30 05-04-2020 02:25:00 2.3 C 4.93 g/m*3 2.3 C 0 km/h
31 05-04-2020 02:30:00 2.3 C 4.93 g/m*3 2.3 C 0 km/h
32 05-04-2020 02:35:00 2.3 C 4.88 g/m*3 2.3 C 0 km/h
33 05-04-2020 02:40:00 2.3 C 4.93 g/m*3 2.3 C 0 km/h
34 05-04-2020 02:45:00 2.2 C 4.84 g/m*3 2.2 C 0 km/h
35 05-04-2020 02:50:00 2.2 C 4.9 g/m*3 2.2 C 0 km/h
36 05-04-2020 02:55:00 2.1 C 4.87 g/m*3 2.1 C 3.2 km/h
37 05-04-2020 03:00:00 2.1 C 4.87 g/m*3 2.1 C 3.2 km/h
38 05-04-2020 03:05:00 2 C 4.83 g/m*3 2 C 0 km/h
39 05-04-2020 03:10:00 1.9 C 4.8 g/m*3 1.9 C 0 km/h
40 05-04-2020 03:15:00 1.9 C 4.8 g/m*3 1.9 C 0 km/h
41 05-04-2020 03:20:00 1.9 C 4.86 g/m*3 1.9 C 0 km/h
42 05-04-2020 03:25:00 1.9 C 4.86 g/m*3 1.9 C 0 km/h
43 05-04-2020 03:30:00 1.8 C 4.82 g/m*3 1.8 C 0 km/h
44 05-04-2020 03:35:00 1.8 C 4.82 g/m*3 1.8 C 0 km/h
45 05-04-2020 03:40:00 1.7 C 4.79 g/m*3 1.7 C 0 km/h
46 05-04-2020 03:45:00 1.6 C 4.76 g/m*3 1.6 C 0 km/h
47 05-04-2020 03:50:00 1.6 C 4.76 g/m*3 1.6 C 0 km/h
48 05-04-2020 03:55:00 1.6 C 4.81 g/m*3 1.6 C 0 km/h
49 05-04-2020 04:00:00 1.5 C 4.78 g/m*3 1.5 C 0 km/h
50 05-04-2020 04:05:00 1.4 C 4.75 g/m*3 1.4 C 0 km/h
Sensor: Nr:Datum:Temp:Abs-Feuchte:Windchill:Wind:
Aussen-T/F 51 05-04-2020 04:10:00 1.4 C 4.75 g/m*3 1.4 C 0 km/h
52 05-04-2020 04:15:00 1.3 C 4.72 g/m*3 1.3 C 0 km/h
53 05-04-2020 04:20:00 1.3 C 4.77 g/m*3 1.3 C 0 km/h
54 05-04-2020 04:25:00 1.3 C 4.77 g/m*3 1.3 C 0 km/h
55 05-04-2020 04:30:00 1.3 C 4.77 g/m*3 1.3 C 0 km/h
56 05-04-2020 04:35:00 1.3 C 4.77 g/m*3 1.3 C 0 km/h
57 05-04-2020 04:40:00 1.2 C 4.74 g/m*3 1.2 C 0 km/h
58 05-04-2020 04:45:00 1.2 C 4.74 g/m*3 1.2 C 0 km/h
59 05-04-2020 04:50:00 1.1 C 4.7 g/m*3 1.1 C 0 km/h
60 05-04-2020 04:55:00 1.1 C 4.7 g/m*3 1.1 C 0 km/h
61 05-04-2020 05:00:00 1 C 4.67 g/m*3 1 C 0 km/h
62 05-04-2020 05:05:00 0.9 C 4.64 g/m*3 0.9 C 0 km/h
63 05-04-2020 05:10:00 0.9 C 4.69 g/m*3 0.9 C 0 km/h
64 05-04-2020 05:15:00 0.8 C 4.66 g/m*3 0.8 C 0 km/h
65 05-04-2020 05:20:00 0.8 C 4.66 g/m*3 0.8 C 0 km/h
66 05-04-2020 05:25:00 0.8 C 4.66 g/m*3 0.8 C 0 km/h
67 05-04-2020 05:30:00 0.7 C 4.63 g/m*3 0.7 C 0 km/h
68 05-04-2020 05:35:00 0.7 C 4.63 g/m*3 0.7 C 0 km/h
69 05-04-2020 05:40:00 0.6 C 4.6 g/m*3 0.6 C 0 km/h
70 05-04-2020 05:45:00 0.6 C 4.6 g/m*3 0.6 C 0 km/h
71 05-04-2020 05:50:00 0.5 C 4.56 g/m*3 0.5 C 0 km/h
72 05-04-2020 05:55:00 0.5 C 4.61 g/m*3 0.5 C 0 km/h
73 05-04-2020 06:00:00 0.5 C 4.61 g/m*3 0.5 C 0 km/h
74 05-04-2020 06:05:00 0.4 C 4.58 g/m*3 0.4 C 0 km/h
75 05-04-2020 06:10:00 0.4 C 4.58 g/m*3 0.4 C 0 km/h
Sensor: Nr:Datum:Temp:Abs-Feuchte:Windchill:Wind:
Aussen-T/F 76 05-04-2020 06:15:00 0.4 C 4.58 g/m*3 0.4 C 0 km/h
77 05-04-2020 06:20:00 0.4 C 4.58 g/m*3 0.4 C 0 km/h
78 05-04-2020 06:25:00 0.4 C 4.58 g/m*3 0.4 C 0 km/h
79 05-04-2020 06:30:00 0.4 C 4.58 g/m*3 0.4 C 0 km/h
80 05-04-2020 06:35:00 0.3 C 4.55 g/m*3 0.3 C 0 km/h
81 05-04-2020 06:40:00 0.3 C 4.55 g/m*3 0.3 C 0 km/h
82 05-04-2020 06:45:00 0.3 C 4.6 g/m*3 0.3 C 0 km/h
83 05-04-2020 06:50:00 0.3 C 4.6 g/m*3 0.3 C 0 km/h
84 05-04-2020 06:55:00 0.3 C 4.6 g/m*3 0.3 C 0 km/h
85 05-04-2020 07:00:00 0.3 C 4.6 g/m*3 0.3 C 0 km/h
86 05-04-2020 07:05:00 0.2 C 4.57 g/m*3 0.2 C 0 km/h
87 05-04-2020 07:10:00 0.2 C 4.57 g/m*3 0.2 C 0 km/h
88 05-04-2020 07:15:00 0.3 C 4.6 g/m*3 0.3 C 0 km/h
89 05-04-2020 07:20:00 0.3 C 4.6 g/m*3 0.3 C 0 km/h
90 05-04-2020 07:25:00 0.3 C 4.6 g/m*3 0.3 C 0 km/h
91 05-04-2020 07:30:00 0.3 C 4.6 g/m*3 0.3 C 0 km/h
92 05-04-2020 07:35:00 0.3 C 4.6 g/m*3 0.3 C 0 km/h
93 05-04-2020 07:40:00 0.4 C 4.63 g/m*3 0.4 C 0 km/h
94 05-04-2020 07:45:00 0.4 C 4.63 g/m*3 0.4 C 0 km/h
95 05-04-2020 07:50:00 0.4 C 4.63 g/m*3 0.4 C 0 km/h
96 05-04-2020 07:55:00 0.5 C 4.66 g/m*3 0.5 C 0 km/h
97 05-04-2020 08:00:00 0.5 C 4.66 g/m*3 0.5 C 0 km/h
98 05-04-2020 08:05:00 0.6 C 4.75 g/m*3 0.6 C 0 km/h
99 05-04-2020 08:10:00 0.6 C 4.75 g/m*3 0.6 C 0 km/h
100 05-04-2020 08:15:00 0.7 C 4.78 g/m*3 0.7 C 0 km/h
Sensor: Nr:Datum:Temp:Abs-Feuchte:Windchill:Wind:
Aussen-T/F 101 05-04-2020 08:20:00 0.7 C 4.78 g/m*3 0.7 C 0 km/h
102 05-04-2020 08:25:00 0.8 C 4.81 g/m*3 0.8 C 0 km/h
103 05-04-2020 08:30:00 0.9 C 4.85 g/m*3 0.9 C 0 km/h
104 05-04-2020 08:35:00 1.1 C 4.91 g/m*3 1.1 C 0 km/h
105 05-04-2020 08:40:00 1.2 C 4.95 g/m*3 1.2 C 0 km/h
106 05-04-2020 08:45:00 1.2 C 4.95 g/m*3 1.2 C 0 km/h
107 05-04-2020 08:50:00 1.3 C 4.98 g/m*3 1.3 C 0 km/h
108 05-04-2020 08:55:00 1.5 C 5.05 g/m*3 1.5 C 0 km/h
109 05-04-2020 09:00:00 1.6 C 5.08 g/m*3 1.6 C 0 km/h
110 05-04-2020 09:05:00 1.7 C 5.12 g/m*3 1.7 C 0 km/h
111 05-04-2020 09:10:00 1.8 C 5.15 g/m*3 1.8 C 0 km/h
112 05-04-2020 09:15:00 1.9 C 5.19 g/m*3 1.9 C 0 km/h
113 05-04-2020 09:20:00 2.2 C 5.29 g/m*3 2.2 C 0 km/h
114 05-04-2020 09:25:00 2.3 C 5.39 g/m*3 2.3 C 0 km/h
115 05-04-2020 09:30:00 2.6 C 5.5 g/m*3 2.6 C 0 km/h
116 05-04-2020 09:35:00 2.8 C 5.57 g/m*3 2.8 C 0 km/h
117 05-04-2020 09:40:00 3 C 5.65 g/m*3 3 C 0 km/h
118 05-04-2020 09:45:00 3.3 C 5.76 g/m*3 3.3 C 0 km/h
119 05-04-2020 09:50:00 3.4 C 5.74 g/m*3 3.4 C 0 km/h
120 05-04-2020 09:55:00 3.7 C 5.86 g/m*3 3.7 C 0 km/h
121 05-04-2020 10:00:00 3.8 C 5.9 g/m*3 3.8 C 0 km/h
122 05-04-2020 10:05:00 4.1 C 5.95 g/m*3 4.1 C 0 km/h
123 05-04-2020 10:10:00 4.4 C 6.07 g/m*3 4.4 C 0 km/h
124 05-04-2020 10:15:00 4.7 C 6.13 g/m*3 4.7 C 0 km/h
125 05-04-2020 10:20:00 4.9 C 6.21 g/m*3 4.9 C 0 km/h
Sensor: Nr:Datum:Temp:Abs-Feuchte:Windchill:Wind:
Aussen-T/F 126 05-04-2020 10:25:00 5.2 C 6.27 g/m*3 5.2 C 0 km/h
127 05-04-2020 10:30:00 5.6 C 6.36 g/m*3 5.6 C 0 km/h
128 05-04-2020 10:35:00 6.1 C 6.43 g/m*3 6.1 C 0 km/h
129 05-04-2020 10:40:00 6.5 C 6.52 g/m*3 6.5 C 0 km/h
130 05-04-2020 10:45:00 6.9 C 6.54 g/m*3 6.9 C 0 km/h
131 05-04-2020 10:50:00 7.3 C 6.64 g/m*3 7.3 C 0 km/h
132 05-04-2020 10:55:00 7.8 C 6.69 g/m*3 7.8 C 0 km/h
133 05-04-2020 11:00:00 8.3 C 6.74 g/m*3 8.3 C 0 km/h
134 05-04-2020 11:05:00 8.9 C 6.92 g/m*3 8.9 C 4.8 km/h
135 05-04-2020 11:10:00 9.4 C 6.87 g/m*3 9.4 C 4.8 km/h
136 05-04-2020 11:15:00 9.9 C 7 g/m*3 9.9 C 0 km/h
137 05-04-2020 11:20:00 10.3 C 6.8 g/m*3 10.3 C 1.6 km/h
138 05-04-2020 11:25:00 10.7 C 6.97 g/m*3 10.7 C 1.6 km/h
139 05-04-2020 11:30:00 11.4 C 6.57 g/m*3 11.4 C 8.1 km/h
140 05-04-2020 11:35:00 12.4 C 6.45 g/m*3 12.4 C 4.8 km/h
141 05-04-2020 11:40:00 13.1 C 6.39 g/m*3 13.1 C 9.7 km/h
142 05-04-2020 11:45:00 13.7 C 5.8 g/m*3 13.7 C 14.5 km/h
143 05-04-2020 11:50:00 14.2 C 5.74 g/m*3 14.2 C 8.1 km/h
144 05-04-2020 11:55:00 14.8 C 5.7 g/m*3 14.8 C 6.4 km/h
145 05-04-2020 12:00:00 15.3 C 5.62 g/m*3 15.3 C 14.5 km/h
146 05-04-2020 12:05:00 15.6 C 5.45 g/m*3 15.6 C 19.3 km/h
147 05-04-2020 12:10:00 15.8 C 5.65 g/m*3 15.8 C 8.1 km/h
148 05-04-2020 12:15:00 16.1 C 5.76 g/m*3 16.1 C 14.5 km/h
149 05-04-2020 12:20:00 16.2 C 5.52 g/m*3 16.2 C 16.1 km/h
150 05-04-2020 12:25:00 16.3 C 5.41 g/m*3 16.3 C 9.7 km/h
Sensor: Nr:Datum:Temp:Abs-Feuchte:Windchill:Wind:
Aussen-T/F 151 05-04-2020 12:30:00 16.4 C 5.3 g/m*3 16.4 C 12.9 km/h
152 05-04-2020 12:35:00 16.6 C 5.51 g/m*3 16.6 C 11.3 km/h
153 05-04-2020 12:40:00 16.7 C 5.68 g/m*3 16.7 C 11.3 km/h
154 05-04-2020 12:45:00 16.8 C 5.43 g/m*3 16.8 C 6.4 km/h
155 05-04-2020 12:50:00 16.8 C 5.58 g/m*3 16.8 C 8.1 km/h
156 05-04-2020 12:55:00 16.8 C 5.29 g/m*3 16.8 C 9.7 km/h
157 05-04-2020 13:00:00 16.8 C 5.43 g/m*3 16.8 C 12.9 km/h
158 05-04-2020 13:05:00 16.9 C 5.32 g/m*3 16.9 C 9.7 km/h
159 05-04-2020 13:10:00 17.1 C 5.53 g/m*3 17.1 C 9.7 km/h
160 05-04-2020 13:15:00 17.3 C 5.6 g/m*3 17.3 C 11.3 km/h
161 05-04-2020 13:20:00 17.2 C 5.42 g/m*3 17.2 C 9.7 km/h
162 05-04-2020 13:25:00 17.3 C 5.45 g/m*3 17.3 C 12.9 km/h
163 05-04-2020 13:30:00 17.4 C 5.48 g/m*3 17.4 C 11.3 km/h
164 05-04-2020 13:35:00 17.4 C 5.48 g/m*3 17.4 C 14.5 km/h
165 05-04-2020 13:40:00 17.3 C 5.6 g/m*3 17.3 C 19.3 km/h
166 05-04-2020 13:45:00 17.3 C 5.3 g/m*3 17.3 C 9.7 km/h
167 05-04-2020 13:50:00 17.3 C 5.45 g/m*3 17.3 C 12.9 km/h
168 05-04-2020 13:55:00 17.4 C 5.34 g/m*3 17.4 C 16.1 km/h
169 05-04-2020 14:00:00 17.6 C 5.55 g/m*3 17.6 C 20.9 km/h
170 05-04-2020 14:05:00 17.7 C 5.58 g/m*3 17.7 C 8.1 km/h
171 05-04-2020 14:10:00 17.9 C 5.34 g/m*3 17.9 C 12.9 km/h
172 05-04-2020 14:15:00 17.9 C 5.65 g/m*3 17.9 C 22.5 km/h
173 05-04-2020 14:20:00 18.1 C 5.56 g/m*3 18.1 C 16.1 km/h
174 05-04-2020 14:25:00 18.2 C 5.6 g/m*3 18.2 C 17.7 km/h
175 05-04-2020 14:30:00 18.2 C 5.44 g/m*3 18.2 C 16.1 km/h
Sensor: Nr:Datum:Temp:Abs-Feuchte:Windchill:Wind:
Aussen-T/F 176 05-04-2020 14:35:00 18.3 C 5.63 g/m*3 18.3 C 11.3 km/h
177 05-04-2020 14:40:00 18.6 C 5.57 g/m*3 18.6 C 8.1 km/h
178 05-04-2020 14:45:00 18.7 C 5.6 g/m*3 18.7 C 11.3 km/h
179 05-04-2020 14:50:00 18.8 C 5.48 g/m*3 18.8 C 14.5 km/h
180 05-04-2020 14:55:00 18.6 C 5.57 g/m*3 18.6 C 12.9 km/h
181 05-04-2020 15:00:00 18.6 C 5.57 g/m*3 18.6 C 6.4 km/h
182 05-04-2020 15:05:00 18.8 C 5.64 g/m*3 18.8 C 6.4 km/h
183 05-04-2020 15:10:00 18.9 C 5.51 g/m*3 18.9 C 6.4 km/h
184 05-04-2020 15:15:00 19 C 5.38 g/m*3 19 C 6.4 km/h
185 05-04-2020 15:20:00 18.9 C 5.51 g/m*3 18.9 C 11.3 km/h
186 05-04-2020 15:25:00 18.9 C 5.35 g/m*3 18.9 C 8.1 km/h
187 05-04-2020 15:30:00 19.1 C 5.41 g/m*3 19.1 C 14.5 km/h
188 05-04-2020 15:35:00 18.9 C 5.18 g/m*3 18.9 C 14.5 km/h
189 05-04-2020 15:40:00 18.8 C 5.31 g/m*3 18.8 C 6.4 km/h
190 05-04-2020 15:45:00 18.9 C 5.67 g/m*3 18.9 C 11.3 km/h
191 05-04-2020 15:50:00 19 C 5.54 g/m*3 19 C 9.7 km/h
192 05-04-2020 15:55:00 19.2 C 5.44 g/m*3 19.2 C 11.3 km/h
193 05-04-2020 16:00:00 19.2 C 5.44 g/m*3 19.2 C 12.9 km/h
194 05-04-2020 16:05:00 19.3 C 5.31 g/m*3 19.3 C 14.5 km/h
195 05-04-2020 16:10:00 19.3 C 5.47 g/m*3 19.3 C 19.3 km/h
196 05-04-2020 16:15:00 19.4 C 5.51 g/m*3 19.4 C 12.9 km/h
197 05-04-2020 16:20:00 19.5 C 5.54 g/m*3 19.5 C 17.7 km/h
198 05-04-2020 16:25:00 19.6 C 5.4 g/m*3 19.6 C 17.7 km/h
199 05-04-2020 16:30:00 19.6 C 5.74 g/m*3 19.6 C 11.3 km/h
200 05-04-2020 16:35:00 19.8 C 5.64 g/m*3 19.8 C 11.3 km/h
Sensor: Nr:Datum:Temp:Abs-Feuchte:Windchill:Wind:
Aussen-T/F 201 05-04-2020 16:40:00 19.9 C 5.67 g/m*3 19.9 C 8.1 km/h
202 05-04-2020 16:45:00 20.3 C 5.63 g/m*3 20.3 C 12.9 km/h
203 05-04-2020 16:50:00 20.3 C 5.45 g/m*3 20.3 C 16.1 km/h
204 05-04-2020 16:55:00 20.2 C 5.42 g/m*3 20.2 C 16.1 km/h
205 05-04-2020 17:00:00 20.2 C 5.42 g/m*3 20.2 C 12.9 km/h
206 05-04-2020 17:05:00 20.1 C 5.74 g/m*3 20.1 C 12.9 km/h
207 05-04-2020 17:10:00 20.5 C 5.69 g/m*3 20.5 C 8.1 km/h
208 05-04-2020 17:15:00 20.9 C 5.83 g/m*3 20.9 C 6.4 km/h
209 05-04-2020 17:20:00 21.2 C 5.56 g/m*3 21.2 C 6.4 km/h
210 05-04-2020 17:25:00 21.1 C 5.71 g/m*3 21.1 C 11.3 km/h
211 05-04-2020 17:30:00 21.2 C 5.56 g/m*3 21.2 C 9.7 km/h
212 05-04-2020 17:35:00 21.2 C 5.56 g/m*3 21.2 C 12.9 km/h
213 05-04-2020 17:40:00 21.2 C 5.56 g/m*3 21.2 C 12.9 km/h
214 05-04-2020 17:45:00 21.1 C 5.53 g/m*3 21.1 C 9.7 km/h
215 05-04-2020 17:50:00 21 C 5.5 g/m*3 21 C 9.7 km/h
216 05-04-2020 17:55:00 21.1 C 5.53 g/m*3 21.1 C 8.1 km/h
217 05-04-2020 18:00:00 20.9 C 5.65 g/m*3 20.9 C 8.1 km/h
218 05-04-2020 18:05:00 20.9 C 5.46 g/m*3 20.9 C 8.1 km/h
219 05-04-2020 18:10:00 20.7 C 5.4 g/m*3 20.7 C 14.5 km/h
220 05-04-2020 18:15:00 20.4 C 5.48 g/m*3 20.4 C 11.3 km/h
221 05-04-2020 18:20:00 20.5 C 5.52 g/m*3 20.5 C 6.4 km/h
222 05-04-2020 18:25:00 20.7 C 5.76 g/m*3 20.7 C 8.1 km/h
223 05-04-2020 18:30:00 20.7 C 5.58 g/m*3 20.7 C 9.7 km/h
224 05-04-2020 18:35:00 20.7 C 5.76 g/m*3 20.7 C 9.7 km/h
225 05-04-2020 18:40:00 20.6 C 5.55 g/m*3 20.6 C 9.7 km/h
Sensor: Nr:Datum:Temp:Abs-Feuchte:Windchill:Wind:
Aussen-T/F 226 05-04-2020 18:45:00 20.4 C 5.48 g/m*3 20.4 C 11.3 km/h
227 05-04-2020 18:50:00 20.4 C 5.48 g/m*3 20.4 C 6.4 km/h
228 05-04-2020 18:55:00 20.4 C 5.48 g/m*3 20.4 C 8.1 km/h
229 05-04-2020 19:00:00 20.3 C 5.45 g/m*3 20.3 C 6.4 km/h
230 05-04-2020 19:05:00 20.3 C 5.45 g/m*3 20.3 C 4.8 km/h
231 05-04-2020 19:10:00 20.2 C 5.42 g/m*3 20.2 C 8.1 km/h
232 05-04-2020 19:15:00 20.1 C 5.56 g/m*3 20.1 C 4.8 km/h
233 05-04-2020 19:20:00 19.9 C 5.67 g/m*3 19.9 C 1.6 km/h
234 05-04-2020 19:25:00 19.8 C 6.15 g/m*3 19.8 C 3.2 km/h
235 05-04-2020 19:30:00 19.6 C 5.91 g/m*3 19.6 C 4.8 km/h
236 05-04-2020 19:35:00 19.4 C 6.01 g/m*3 19.4 C 1.6 km/h
237 05-04-2020 19:40:00 19.1 C 6.23 g/m*3 19.1 C 3.2 km/h
238 05-04-2020 19:45:00 18.6 C 6.21 g/m*3 18.6 C 3.2 km/h
239 05-04-2020 19:50:00 17.9 C 6.11 g/m*3 17.9 C 4.8 km/h
240 05-04-2020 19:55:00 17.2 C 6.15 g/m*3 17.2 C 4.8 km/h
241 05-04-2020 20:00:00 16.4 C 6.14 g/m*3 16.4 C 4.8 km/h
242 05-04-2020 20:05:00 15.8 C 6.06 g/m*3 15.8 C 6.4 km/h
243 05-04-2020 20:10:00 15.1 C 6.06 g/m*3 15.1 C 6.4 km/h
244 05-04-2020 20:15:00 14.6 C 5.88 g/m*3 14.6 C 6.4 km/h
245 05-04-2020 20:20:00 14.2 C 6.11 g/m*3 14.2 C 6.4 km/h
246 05-04-2020 20:25:00 13.8 C 5.96 g/m*3 13.8 C 6.4 km/h
247 05-04-2020 20:30:00 13.4 C 5.93 g/m*3 13.4 C 6.4 km/h
248 05-04-2020 20:35:00 13.1 C 5.93 g/m*3 13.1 C 6.4 km/h
249 05-04-2020 20:40:00 12.8 C 5.94 g/m*3 12.8 C 6.4 km/h
250 05-04-2020 20:45:00 12.6 C 5.97 g/m*3 12.6 C 4.8 km/h
Sensor: Nr:Datum:Temp:Abs-Feuchte:Windchill:Wind:
Aussen-T/F 251 05-04-2020 20:50:00 12.4 C 5.9 g/m*3 12.4 C 4.8 km/h
252 05-04-2020 20:55:00 12.3 C 5.86 g/m*3 12.3 C 6.4 km/h
253 05-04-2020 21:00:00 12.1 C 6.01 g/m*3 12.1 C 6.4 km/h
254 05-04-2020 21:05:00 11.9 C 5.93 g/m*3 11.9 C 6.4 km/h
255 05-04-2020 21:10:00 11.8 C 6 g/m*3 11.8 C 6.4 km/h
256 05-04-2020 21:15:00 11.7 C 5.96 g/m*3 11.7 C 6.4 km/h
257 05-04-2020 21:20:00 11.6 C 5.92 g/m*3 11.6 C 6.4 km/h
258 05-04-2020 21:25:00 11.4 C 5.85 g/m*3 11.4 C 4.8 km/h
259 05-04-2020 21:30:00 11.3 C 5.92 g/m*3 11.3 C 4.8 km/h
260 05-04-2020 21:35:00 11.2 C 5.88 g/m*3 11.2 C 6.4 km/h
261 05-04-2020 21:40:00 11.1 C 5.84 g/m*3 11.1 C 6.4 km/h
262 05-04-2020 21:45:00 10.9 C 5.87 g/m*3 10.9 C 4.8 km/h
263 05-04-2020 21:50:00 10.8 C 5.83 g/m*3 10.29 C 6.4 km/h
264 05-04-2020 21:55:00 10.6 C 5.86 g/m*3 10.6 C 4.8 km/h
265 05-04-2020 22:00:00 10.4 C 5.78 g/m*3 10.4 C 4.8 km/h
266 05-04-2020 22:05:00 10.3 C 5.84 g/m*3 10.3 C 4.8 km/h
267 05-04-2020 22:10:00 10.1 C 5.86 g/m*3 10.1 C 3.2 km/h
268 05-04-2020 22:15:00 9.9 C 5.79 g/m*3 9.9 C 4.8 km/h
269 05-04-2020 22:20:00 9.7 C 5.72 g/m*3 9.7 C 4.8 km/h
270 05-04-2020 22:25:00 9.6 C 5.77 g/m*3 9.6 C 3.2 km/h
271 05-04-2020 22:30:00 9.5 C 5.73 g/m*3 9.5 C 1.6 km/h
272 05-04-2020 22:35:00 9.4 C 5.79 g/m*3 9.4 C 1.6 km/h
273 05-04-2020 22:40:00 9.2 C 5.71 g/m*3 9.2 C 1.6 km/h
274 05-04-2020 22:45:00 9.1 C 5.68 g/m*3 9.1 C 0 km/h
275 05-04-2020 22:50:00 8.9 C 5.69 g/m*3 8.9 C 0 km/h
Sensor: Nr:Datum:Temp:Abs-Feuchte:Windchill:Wind:
Aussen-T/F 276 05-04-2020 22:55:00 8.9 C 5.78 g/m*3 8.9 C 0 km/h
277 05-04-2020 23:00:00 8.8 C 5.83 g/m*3 8.8 C 0 km/h
278 05-04-2020 23:05:00 8.6 C 5.84 g/m*3 8.6 C 0 km/h
279 05-04-2020 23:10:00 8.4 C 5.77 g/m*3 8.4 C 1.6 km/h
280 05-04-2020 23:15:00 8.2 C 5.78 g/m*3 8.2 C 0 km/h
281 05-04-2020 23:20:00 8.1 C 5.74 g/m*3 8.1 C 0 km/h
282 05-04-2020 23:25:00 8 C 5.7 g/m*3 8 C 0 km/h
283 05-04-2020 23:30:00 7.9 C 5.67 g/m*3 7.9 C 0 km/h
284 05-04-2020 23:35:00 7.8 C 5.63 g/m*3 7.8 C 0 km/h
285 05-04-2020 23:40:00 7.7 C 5.59 g/m*3 7.7 C 0 km/h
286 05-04-2020 23:45:00 7.7 C 5.68 g/m*3 7.7 C 0 km/h
287 05-04-2020 23:50:00 7.6 C 5.64 g/m*3 7.6 C 0 km/h
288 05-04-2020 23:55:00 7.4 C 5.57 g/m*3 7.4 C 0 km/h
289 06-04-2020 00:00:00 7.3 C 5.61 g/m*3 7.3 C 0 km/h
290 06-04-2020 00:05:00 7.2 C 5.57 g/m*3 7.2 C 0 km/h
291 06-04-2020 00:10:00 7.1 C 5.62 g/m*3 7.1 C 0 km/h
292 06-04-2020 00:15:00 7.1 C 5.69 g/m*3 7.1 C 0 km/h
293 06-04-2020 00:20:00 7.1 C 5.69 g/m*3 7.1 C 0 km/h
294 06-04-2020 00:25:00 7 C 5.66 g/m*3 7 C 0 km/h
295 06-04-2020 00:30:00 6.9 C 5.54 g/m*3 6.9 C 0 km/h
296 06-04-2020 00:35:00 6.9 C 5.62 g/m*3 6.9 C 0 km/h
297 06-04-2020 00:40:00 6.7 C 5.55 g/m*3 6.7 C 0 km/h
298 06-04-2020 00:45:00 6.6 C 5.51 g/m*3 6.6 C 0 km/h
299 06-04-2020 00:50:00 6.5 C 5.62 g/m*3 6.5 C 0 km/h
300 06-04-2020 00:55:00 6.4 C 5.59 g/m*3 6.4 C 0 km/h
Sensor: Nr:Datum:Temp:Abs-Feuchte:Windchill:Wind:
Aussen-T/F 301 06-04-2020 01:00:00 6.3 C 5.63 g/m*3 6.3 C 0 km/h
302 06-04-2020 01:05:00 6.2 C 5.59 g/m*3 6.2 C 0 km/h
303 06-04-2020 01:10:00 6.2 C 5.66 g/m*3 6.2 C 0 km/h
304 06-04-2020 01:15:00 6.1 C 5.55 g/m*3 6.1 C 0 km/h
305 06-04-2020 01:20:00 6 C 5.59 g/m*3 6 C 0 km/h
306 06-04-2020 01:25:00 5.9 C 5.55 g/m*3 5.9 C 0 km/h
307 06-04-2020 01:30:00 5.8 C 5.52 g/m*3 5.8 C 0 km/h
308 06-04-2020 01:35:00 5.7 C 5.55 g/m*3 5.7 C 0 km/h
309 06-04-2020 01:40:00 5.6 C 5.51 g/m*3 5.6 C 0 km/h
310 06-04-2020 01:45:00 5.5 C 5.55 g/m*3 5.5 C 0 km/h
311 06-04-2020 01:50:00 5.4 C 5.51 g/m*3 5.4 C 0 km/h
312 06-04-2020 01:55:00 5.4 C 5.51 g/m*3 5.4 C 0 km/h
313 06-04-2020 02:00:00 5.4 C 5.58 g/m*3 5.4 C 0 km/h
314 06-04-2020 02:05:00 5.3 C 5.48 g/m*3 5.3 C 0 km/h
315 06-04-2020 02:10:00 5.1 C 5.47 g/m*3 5.1 C 0 km/h
316 06-04-2020 02:15:00 5 C 5.5 g/m*3 5 C 0 km/h
317 06-04-2020 02:20:00 5 C 5.5 g/m*3 5 C 0 km/h
318 06-04-2020 02:25:00 4.9 C 5.4 g/m*3 4.9 C 0 km/h
319 06-04-2020 02:30:00 4.9 C 5.47 g/m*3 4.9 C 0 km/h
320 06-04-2020 02:35:00 4.8 C 5.43 g/m*3 4.8 C 0 km/h
321 06-04-2020 02:40:00 4.8 C 5.43 g/m*3 4.8 C 0 km/h
322 06-04-2020 02:45:00 4.8 C 5.43 g/m*3 4.8 C 0 km/h
323 06-04-2020 02:50:00 4.7 C 5.4 g/m*3 4.7 C 0 km/h
324 06-04-2020 02:55:00 4.6 C 5.36 g/m*3 4.6 C 0 km/h
325 06-04-2020 03:00:00 4.4 C 5.35 g/m*3 4.4 C 0 km/h
Sensor: Nr:Datum:Temp:Abs-Feuchte:Windchill:Wind:
Aussen-T/F 326 06-04-2020 03:05:00 4.4 C 5.35 g/m*3 4.4 C 0 km/h
327 06-04-2020 03:10:00 4.3 C 5.32 g/m*3 4.3 C 0 km/h
328 06-04-2020 03:15:00 4.3 C 5.32 g/m*3 4.3 C 0 km/h
329 06-04-2020 03:20:00 4.2 C 5.35 g/m*3 4.2 C 0 km/h
330 06-04-2020 03:25:00 4.2 C 5.35 g/m*3 4.2 C 0 km/h
331 06-04-2020 03:30:00 4.2 C 5.35 g/m*3 4.2 C 0 km/h
332 06-04-2020 03:35:00 4.1 C 5.31 g/m*3 4.1 C 0 km/h
333 06-04-2020 03:40:00 4.1 C 5.31 g/m*3 4.1 C 0 km/h
334 06-04-2020 03:45:00 4 C 5.28 g/m*3 4 C 0 km/h
335 06-04-2020 03:50:00 3.9 C 5.24 g/m*3 3.9 C 0 km/h
336 06-04-2020 03:55:00 3.9 C 5.31 g/m*3 3.9 C 0 km/h
337 06-04-2020 04:00:00 3.8 C 5.27 g/m*3 3.8 C 0 km/h
338 06-04-2020 04:05:00 3.8 C 5.27 g/m*3 3.8 C 0 km/h
339 06-04-2020 04:10:00 3.8 C 5.27 g/m*3 3.8 C 0 km/h
340 06-04-2020 04:15:00 3.8 C 5.27 g/m*3 3.8 C 0 km/h
341 06-04-2020 04:20:00 3.8 C 5.27 g/m*3 3.8 C 0 km/h
342 06-04-2020 04:25:00 3.8 C 5.27 g/m*3 3.8 C 0 km/h
343 06-04-2020 04:30:00 3.7 C 5.23 g/m*3 3.7 C 0 km/h
344 06-04-2020 04:35:00 3.6 C 5.2 g/m*3 3.6 C 0 km/h
345 06-04-2020 04:40:00 3.5 C 5.23 g/m*3 3.5 C 0 km/h
346 06-04-2020 04:45:00 3.4 C 5.19 g/m*3 3.4 C 0 km/h
347 06-04-2020 04:50:00 3.3 C 5.16 g/m*3 3.3 C 0 km/h
348 06-04-2020 04:55:00 3.2 C 5.18 g/m*3 3.2 C 0 km/h
349 06-04-2020 05:00:00 3.2 C 5.18 g/m*3 3.2 C 0 km/h
350 06-04-2020 05:05:00 3.2 C 5.18 g/m*3 3.2 C 0 km/h
Sensor: Nr:Datum:Temp:Abs-Feuchte:Windchill:Wind:
Aussen-T/F 351 06-04-2020 05:10:00 3.2 C 5.18 g/m*3 3.2 C 0 km/h
352 06-04-2020 05:15:00 3.2 C 5.18 g/m*3 3.2 C 0 km/h
353 06-04-2020 05:20:00 3.1 C 5.15 g/m*3 3.1 C 0 km/h
354 06-04-2020 05:25:00 3 C 5.11 g/m*3 3 C 0 km/h
355 06-04-2020 05:30:00 2.9 C 5.08 g/m*3 2.9 C 0 km/h
356 06-04-2020 05:35:00 2.9 C 5.14 g/m*3 2.9 C 0 km/h
357 06-04-2020 05:40:00 2.9 C 5.14 g/m*3 2.9 C 0 km/h
358 06-04-2020 05:45:00 2.8 C 5.1 g/m*3 2.8 C 0 km/h
359 06-04-2020 05:50:00 2.8 C 5.1 g/m*3 2.8 C 0 km/h
360 06-04-2020 05:55:00 2.7 C 5.07 g/m*3 2.7 C 0 km/h
361 06-04-2020 06:00:00 2.6 C 5.03 g/m*3 2.6 C 0 km/h
362 06-04-2020 06:05:00 2.6 C 5.09 g/m*3 2.6 C 0 km/h
363 06-04-2020 06:10:00 2.4 C 5.02 g/m*3 2.4 C 0 km/h
364 06-04-2020 06:15:00 2.4 C 5.02 g/m*3 2.4 C 0 km/h
365 06-04-2020 06:20:00 2.3 C 4.99 g/m*3 2.3 C 0 km/h
366 06-04-2020 06:25:00 2.2 C 4.96 g/m*3 2.2 C 0 km/h
367 06-04-2020 06:30:00 2.2 C 5.01 g/m*3 2.2 C 0 km/h
368 06-04-2020 06:35:00 2.1 C 4.98 g/m*3 2.1 C 0 km/h
369 06-04-2020 06:40:00 2.1 C 4.98 g/m*3 2.1 C 0 km/h
370 06-04-2020 06:45:00 2.1 C 4.98 g/m*3 2.1 C 0 km/h
371 06-04-2020 06:50:00 2.1 C 4.98 g/m*3 2.1 C 0 km/h
372 06-04-2020 06:55:00 2.1 C 4.98 g/m*3 2.1 C 0 km/h
373 06-04-2020 07:00:00 2.1 C 5.04 g/m*3 2.1 C 0 km/h
374 06-04-2020 07:05:00 2.2 C 5.07 g/m*3 2.2 C 0 km/h
375 06-04-2020 07:10:00 2.2 C 5.07 g/m*3 2.2 C 0 km/h
Sensor: Nr:Datum:Temp:Abs-Feuchte:Windchill:Wind:
Aussen-T/F 376 06-04-2020 07:15:00 2.3 C 5.1 g/m*3 2.3 C 0 km/h
377 06-04-2020 07:20:00 2.4 C 5.2 g/m*3 2.4 C 0 km/h
378 06-04-2020 07:25:00 2.4 C 5.14 g/m*3 2.4 C 0 km/h
379 06-04-2020 07:30:00 2.4 C 5.14 g/m*3 2.4 C 0 km/h
380 06-04-2020 07:35:00 2.4 C 5.14 g/m*3 2.4 C 0 km/h
381 06-04-2020 07:40:00 2.4 C 5.14 g/m*3 2.4 C 0 km/h
382 06-04-2020 07:45:00 2.4 C 5.14 g/m*3 2.4 C 0 km/h
383 06-04-2020 07:50:00 2.6 C 5.27 g/m*3 2.6 C 0 km/h
384 06-04-2020 07:55:00 2.7 C 5.24 g/m*3 2.7 C 0 km/h
385 06-04-2020 08:00:00 2.6 C 5.21 g/m*3 2.6 C 0 km/h
386 06-04-2020 08:05:00 2.7 C 5.24 g/m*3 2.7 C 0 km/h
387 06-04-2020 08:10:00 2.7 C 5.3 g/m*3 2.7 C 0 km/h
388 06-04-2020 08:15:00 2.8 C 5.34 g/m*3 2.8 C 0 km/h
389 06-04-2020 08:20:00 2.9 C 5.37 g/m*3 2.9 C 0 km/h
390 06-04-2020 08:25:00 3.1 C 5.45 g/m*3 3.1 C 0 km/h
391 06-04-2020 08:30:00 3.4 C 5.5 g/m*3 3.4 C 1.6 km/h
392 06-04-2020 08:35:00 3.6 C 5.57 g/m*3 3.6 C 0 km/h
393 06-04-2020 08:40:00 3.7 C 5.55 g/m*3 3.7 C 0 km/h
394 06-04-2020 08:45:00 3.8 C 5.58 g/m*3 3.8 C 0 km/h
395 06-04-2020 08:50:00 3.9 C 5.62 g/m*3 3.9 C 0 km/h
396 06-04-2020 08:55:00 3.9 C 5.56 g/m*3 3.9 C 0 km/h
397 06-04-2020 09:00:00 3.9 C 5.56 g/m*3 3.9 C 0 km/h
398 06-04-2020 09:05:00 4 C 5.59 g/m*3 4 C 0 km/h
399 06-04-2020 09:10:00 4.1 C 5.63 g/m*3 4.1 C 0 km/h
400 06-04-2020 09:15:00 4.2 C 5.67 g/m*3 4.2 C 1.6 km/h
Sensor: Nr:Datum:Temp:Abs-Feuchte:Windchill:Wind:
Aussen-T/F 401 06-04-2020 09:20:00 4.2 C 5.67 g/m*3 4.2 C 0 km/h
402 06-04-2020 09:25:00 4.3 C 5.71 g/m*3 4.3 C 0 km/h
403 06-04-2020 09:30:00 4.4 C 5.75 g/m*3 4.4 C 0 km/h
404 06-04-2020 09:35:00 4.6 C 5.82 g/m*3 4.6 C 0 km/h
405 06-04-2020 09:40:00 4.8 C 5.9 g/m*3 4.8 C 0 km/h
406 06-04-2020 09:45:00 5 C 5.98 g/m*3 5 C 0 km/h
407 06-04-2020 09:50:00 5.2 C 6.06 g/m*3 5.2 C 0 km/h
408 06-04-2020 09:55:00 5.3 C 6.1 g/m*3 5.3 C 0 km/h
409 06-04-2020 10:00:00 5.6 C 6.15 g/m*3 5.6 C 0 km/h
410 06-04-2020 10:05:00 5.9 C 6.2 g/m*3 5.9 C 0 km/h
411 06-04-2020 10:10:00 6.2 C 6.25 g/m*3 6.2 C 0 km/h
412 06-04-2020 10:15:00 6.4 C 6.33 g/m*3 6.4 C 0 km/h
413 06-04-2020 10:20:00 6.7 C 6.38 g/m*3 6.7 C 0 km/h
414 06-04-2020 10:25:00 7.1 C 6.47 g/m*3 7.1 C 0 km/h
415 06-04-2020 10:30:00 7.4 C 6.52 g/m*3 7.4 C 0 km/h
416 06-04-2020 10:35:00 8 C 6.61 g/m*3 8 C 0 km/h
417 06-04-2020 10:40:00 8.4 C 6.62 g/m*3 8.4 C 0 km/h
418 06-04-2020 10:45:00 8.8 C 6.7 g/m*3 8.8 C 3.2 km/h
419 06-04-2020 10:50:00 9.4 C 6.87 g/m*3 9.4 C 0 km/h
420 06-04-2020 10:55:00 9.9 C 6.82 g/m*3 9.9 C 0 km/h
421 06-04-2020 11:00:00 10.5 C 6.98 g/m*3 10.5 C 0 km/h
422 06-04-2020 11:05:00 11.2 C 6.89 g/m*3 11.2 C 0 km/h
423 06-04-2020 11:10:00 11.7 C 6.9 g/m*3 11.7 C 0 km/h
424 06-04-2020 11:15:00 12.3 C 7.28 g/m*3 12.3 C 0 km/h
425 06-04-2020 11:20:00 12.7 C 6.9 g/m*3 12.7 C 0 km/h
Sensor: Nr:Datum:Temp:Abs-Feuchte:Windchill:Wind:
Aussen-T/F 426 06-04-2020 11:25:00 13.3 C 6.47 g/m*3 13.3 C 6.4 km/h
427 06-04-2020 11:30:00 14.2 C 6.59 g/m*3 14.2 C 11.3 km/h
428 06-04-2020 11:35:00 15.3 C 6.4 g/m*3 15.3 C 12.9 km/h
429 06-04-2020 11:40:00 16.1 C 6.17 g/m*3 16.1 C 8.1 km/h
430 06-04-2020 11:45:00 16.7 C 5.97 g/m*3 16.7 C 17.7 km/h
431 06-04-2020 11:50:00 17.1 C 6.26 g/m*3 17.1 C 19.3 km/h
432 06-04-2020 11:55:00 17.3 C 6.04 g/m*3 17.3 C 16.1 km/h
433 06-04-2020 12:00:00 17.6 C 6 g/m*3 17.6 C 9.7 km/h
434 06-04-2020 12:05:00 17.9 C 5.8 g/m*3 17.9 C 16.1 km/h
435 06-04-2020 12:10:00 18.1 C 5.87 g/m*3 18.1 C 12.9 km/h
436 06-04-2020 12:15:00 18.3 C 5.79 g/m*3 18.3 C 14.5 km/h
437 06-04-2020 12:20:00 18.6 C 6.05 g/m*3 18.6 C 9.7 km/h
438 06-04-2020 12:25:00 18.7 C 5.76 g/m*3 18.7 C 12.9 km/h
439 06-04-2020 12:30:00 18.9 C 5.67 g/m*3 18.9 C 11.3 km/h
440 06-04-2020 12:35:00 19.1 C 5.74 g/m*3 19.1 C 14.5 km/h
441 06-04-2020 12:40:00 19.2 C 5.77 g/m*3 19.2 C 14.5 km/h
442 06-04-2020 12:45:00 19.3 C 5.81 g/m*3 19.3 C 11.3 km/h
443 06-04-2020 12:50:00 19.4 C 5.84 g/m*3 19.4 C 12.9 km/h
444 06-04-2020 12:55:00 19.4 C 6.01 g/m*3 19.4 C 11.3 km/h
445 06-04-2020 13:00:00 19.6 C 5.74 g/m*3 19.6 C 11.3 km/h
446 06-04-2020 13:05:00 19.7 C 5.94 g/m*3 19.7 C 11.3 km/h
447 06-04-2020 13:10:00 19.8 C 5.98 g/m*3 19.8 C 11.3 km/h
448 06-04-2020 13:15:00 19.9 C 5.84 g/m*3 19.9 C 8.1 km/h
449 06-04-2020 13:20:00 20.1 C 5.91 g/m*3 20.1 C 12.9 km/h
450 06-04-2020 13:25:00 20.2 C 5.94 g/m*3 20.2 C 9.7 km/h
Sensor: Nr:Datum:Temp:Abs-Feuchte:Windchill:Wind:
Aussen-T/F 451 06-04-2020 13:30:00 20.2 C 6.12 g/m*3 20.2 C 8.1 km/h
452 06-04-2020 13:35:00 20.3 C 6.16 g/m*3 20.3 C 6.4 km/h
453 06-04-2020 13:40:00 20.4 C 6.37 g/m*3 20.4 C 9.7 km/h
454 06-04-2020 13:45:00 20.5 C 6.41 g/m*3 20.5 C 9.7 km/h
455 06-04-2020 13:50:00 20.7 C 6.12 g/m*3 20.7 C 8.1 km/h
456 06-04-2020 13:55:00 20.8 C 6.16 g/m*3 20.8 C 8.1 km/h
457 06-04-2020 14:00:00 21 C 6.23 g/m*3 21 C 9.7 km/h
458 06-04-2020 14:05:00 21.2 C 6.3 g/m*3 21.2 C 11.3 km/h
459 06-04-2020 14:10:00 21.2 C 6.12 g/m*3 21.2 C 11.3 km/h
460 06-04-2020 14:15:00 21.3 C 6.52 g/m*3 21.3 C 6.4 km/h
461 06-04-2020 14:20:00 21.5 C 6.03 g/m*3 21.5 C 9.7 km/h
462 06-04-2020 14:25:00 21.7 C 6.1 g/m*3 21.7 C 8.1 km/h
463 06-04-2020 14:30:00 21.9 C 6.37 g/m*3 21.9 C 8.1 km/h
464 06-04-2020 14:35:00 22.2 C 6.28 g/m*3 22.2 C 9.7 km/h
465 06-04-2020 14:40:00 22.4 C 5.96 g/m*3 22.4 C 14.5 km/h
466 06-04-2020 14:45:00 22.6 C 6.03 g/m*3 22.6 C 17.7 km/h
467 06-04-2020 14:50:00 22.6 C 5.62 g/m*3 22.6 C 12.9 km/h
468 06-04-2020 14:55:00 22.7 C 5.05 g/m*3 22.7 C 11.3 km/h
469 06-04-2020 15:00:00 22.8 C 5.08 g/m*3 22.8 C 12.9 km/h
470 06-04-2020 15:05:00 22.9 C 4.7 g/m*3 22.9 C 16.1 km/h
471 06-04-2020 15:10:00 22.8 C 4.88 g/m*3 22.8 C 14.5 km/h
472 06-04-2020 15:15:00 22.7 C 5.05 g/m*3 22.7 C 20.9 km/h
473 06-04-2020 15:20:00 22.6 C 5.22 g/m*3 22.6 C 17.7 km/h
474 06-04-2020 15:25:00 22.6 C 5.22 g/m*3 22.6 C 20.9 km/h
475 06-04-2020 15:30:00 22.6 C 4.82 g/m*3 22.6 C 22.5 km/h
Sensor: Nr:Datum:Temp:Abs-Feuchte:Windchill:Wind:
Aussen-T/F 476 06-04-2020 15:35:00 22.6 C 5.02 g/m*3 22.6 C 16.1 km/h
477 06-04-2020 15:40:00 22.6 C 5.02 g/m*3 22.6 C 25.7 km/h
478 06-04-2020 15:45:00 22.6 C 5.02 g/m*3 22.6 C 20.9 km/h
479 06-04-2020 15:50:00 22.6 C 5.02 g/m*3 22.6 C 19.3 km/h
480 06-04-2020 15:55:00 22.8 C 5.28 g/m*3 22.8 C 11.3 km/h
481 06-04-2020 16:00:00 23 C 5.34 g/m*3 23 C 4.8 km/h
482 06-04-2020 16:05:00 23.2 C 5.41 g/m*3 23.2 C 6.4 km/h
483 06-04-2020 16:10:00 23.4 C 5.26 g/m*3 23.4 C 16.1 km/h
484 06-04-2020 16:15:00 23.6 C 5.32 g/m*3 23.6 C 11.3 km/h
485 06-04-2020 16:20:00 23.8 C 5.16 g/m*3 23.8 C 12.9 km/h
486 06-04-2020 16:25:00 23.8 C 4.95 g/m*3 23.8 C 16.1 km/h
487 06-04-2020 16:30:00 23.9 C 5.62 g/m*3 23.9 C 11.3 km/h
488 06-04-2020 16:35:00 23.9 C 5.62 g/m*3 23.9 C 11.3 km/h
489 06-04-2020 16:40:00 24.1 C 5.91 g/m*3 24.1 C 11.3 km/h
490 06-04-2020 16:45:00 24.3 C 5.75 g/m*3 24.3 C 11.3 km/h
491 06-04-2020 16:50:00 24.3 C 5.75 g/m*3 24.3 C 11.3 km/h
492 06-04-2020 16:55:00 24.1 C 6.13 g/m*3 24.1 C 16.1 km/h
493 06-04-2020 17:00:00 23.8 C 5.81 g/m*3 23.8 C 17.7 km/h
494 06-04-2020 17:05:00 23.8 C 6.02 g/m*3 23.8 C 14.5 km/h
495 06-04-2020 17:10:00 23.6 C 5.74 g/m*3 23.6 C 16.1 km/h
496 06-04-2020 17:15:00 23.7 C 5.99 g/m*3 23.7 C 14.5 km/h
497 06-04-2020 17:20:00 23.8 C 6.02 g/m*3 23.8 C 12.9 km/h
498 06-04-2020 17:25:00 23.9 C 5.62 g/m*3 23.9 C 16.1 km/h
499 06-04-2020 17:30:00 23.9 C 5.84 g/m*3 23.9 C 17.7 km/h
500 06-04-2020 17:35:00 23.8 C 5.59 g/m*3 23.8 C 14.5 km/h
Sensor: Nr:Datum:Temp:Abs-Feuchte:Windchill:Wind:
Aussen-T/F 501 06-04-2020 17:40:00 23.7 C 5.78 g/m*3 23.7 C 19.3 km/h
502 06-04-2020 17:45:00 23.9 C 6.06 g/m*3 23.9 C 12.9 km/h
503 06-04-2020 17:50:00 24.1 C 5.69 g/m*3 24.1 C 16.1 km/h
504 06-04-2020 17:55:00 23.9 C 5.62 g/m*3 23.9 C 11.3 km/h
505 06-04-2020 18:00:00 23.8 C 5.81 g/m*3 23.8 C 14.5 km/h
506 06-04-2020 18:05:00 23.7 C 5.56 g/m*3 23.7 C 14.5 km/h
507 06-04-2020 18:10:00 23.7 C 5.56 g/m*3 23.7 C 16.1 km/h
508 06-04-2020 18:15:00 23.4 C 5.47 g/m*3 23.4 C 12.9 km/h
509 06-04-2020 18:20:00 23.5 C 5.71 g/m*3 23.5 C 11.3 km/h
510 06-04-2020 18:25:00 23.6 C 5.53 g/m*3 23.6 C 12.9 km/h
511 06-04-2020 18:30:00 23.5 C 5.5 g/m*3 23.5 C 16.1 km/h
512 06-04-2020 18:35:00 23.4 C 5.68 g/m*3 23.4 C 12.9 km/h
513 06-04-2020 18:40:00 23.3 C 5.44 g/m*3 23.3 C 11.3 km/h
514 06-04-2020 18:45:00 23.3 C 5.44 g/m*3 23.3 C 9.7 km/h
515 06-04-2020 18:50:00 23.2 C 5.61 g/m*3 23.2 C 12.9 km/h
516 06-04-2020 18:55:00 23.1 C 5.58 g/m*3 23.1 C 11.3 km/h
517 06-04-2020 19:00:00 22.9 C 5.52 g/m*3 22.9 C 11.3 km/h
518 06-04-2020 19:05:00 22.8 C 5.69 g/m*3 22.8 C 8.1 km/h
519 06-04-2020 19:10:00 22.7 C 5.86 g/m*3 22.7 C 9.7 km/h
520 06-04-2020 19:15:00 22.6 C 6.23 g/m*3 22.6 C 4.8 km/h
521 06-04-2020 19:20:00 22.3 C 6.12 g/m*3 22.3 C 9.7 km/h
522 06-04-2020 19:25:00 22 C 6.02 g/m*3 22 C 4.8 km/h
523 06-04-2020 19:30:00 21.7 C 5.91 g/m*3 21.7 C 6.4 km/h
524 06-04-2020 19:35:00 21.3 C 6.34 g/m*3 21.3 C 3.2 km/h
525 06-04-2020 19:40:00 20.8 C 6.52 g/m*3 20.8 C 6.4 km/h
Sensor: Nr:Datum:Temp:Abs-Feuchte:Windchill:Wind:
Aussen-T/F 526 06-04-2020 19:45:00 20.4 C 6.19 g/m*3 20.4 C 4.8 km/h
527 06-04-2020 19:50:00 20 C 6.39 g/m*3 20 C 6.4 km/h
528 06-04-2020 19:55:00 19.5 C 6.38 g/m*3 19.5 C 3.2 km/h
529 06-04-2020 20:00:00 18.9 C 6.48 g/m*3 18.9 C 6.4 km/h
530 06-04-2020 20:05:00 18.2 C 6.37 g/m*3 18.2 C 6.4 km/h
531 06-04-2020 20:10:00 17.6 C 6.45 g/m*3 17.6 C 6.4 km/h
532 06-04-2020 20:15:00 17.1 C 6.55 g/m*3 17.1 C 6.4 km/h
533 06-04-2020 20:20:00 16.6 C 6.36 g/m*3 16.6 C 6.4 km/h
534 06-04-2020 20:25:00 16.2 C 6.34 g/m*3 16.2 C 6.4 km/h
535 06-04-2020 20:30:00 15.8 C 6.46 g/m*3 15.8 C 6.4 km/h
536 06-04-2020 20:35:00 15.5 C 6.34 g/m*3 15.5 C 6.4 km/h
537 06-04-2020 20:40:00 15.3 C 6.53 g/m*3 15.3 C 4.8 km/h
538 06-04-2020 20:45:00 15 C 6.41 g/m*3 15 C 4.8 km/h
539 06-04-2020 20:50:00 14.7 C 6.55 g/m*3 14.7 C 3.2 km/h
540 06-04-2020 20:55:00 14.5 C 6.59 g/m*3 14.5 C 4.8 km/h
541 06-04-2020 21:00:00 14.2 C 6.47 g/m*3 14.2 C 4.8 km/h
542 06-04-2020 21:05:00 14 C 6.51 g/m*3 14 C 4.8 km/h
543 06-04-2020 21:10:00 13.9 C 6.47 g/m*3 13.9 C 4.8 km/h
544 06-04-2020 21:15:00 13.7 C 6.51 g/m*3 13.7 C 3.2 km/h
545 06-04-2020 21:20:00 13.6 C 6.59 g/m*3 13.6 C 3.2 km/h
546 06-04-2020 21:25:00 13.3 C 6.47 g/m*3 13.3 C 1.6 km/h
547 06-04-2020 21:30:00 13.2 C 6.54 g/m*3 13.2 C 3.2 km/h
548 06-04-2020 21:35:00 12.9 C 6.42 g/m*3 12.9 C 0 km/h
549 06-04-2020 21:40:00 12.8 C 6.5 g/m*3 12.8 C 0 km/h
550 06-04-2020 21:45:00 12.6 C 6.31 g/m*3 12.6 C 0 km/h
Sensor: Nr:Datum:Temp:Abs-Feuchte:Windchill:Wind:
Aussen-T/F 551 06-04-2020 21:50:00 12.3 C 6.3 g/m*3 12.3 C 0 km/h
552 06-04-2020 21:55:00 12.1 C 6.33 g/m*3 12.1 C 1.6 km/h
553 06-04-2020 22:00:00 12 C 6.39 g/m*3 12 C 1.6 km/h
554 06-04-2020 22:05:00 11.9 C 6.35 g/m*3 11.9 C 1.6 km/h
555 06-04-2020 22:10:00 11.8 C 6.53 g/m*3 11.8 C 1.6 km/h
556 06-04-2020 22:15:00 11.6 C 6.44 g/m*3 11.6 C 0 km/h
557 06-04-2020 22:20:00 11.3 C 6.32 g/m*3 11.3 C 0 km/h
558 06-04-2020 22:25:00 11 C 6.31 g/m*3 11 C 1.6 km/h
559 06-04-2020 22:30:00 10.8 C 6.33 g/m*3 10.8 C 0 km/h
560 06-04-2020 22:35:00 10.7 C 6.29 g/m*3 10.7 C 1.6 km/h
561 06-04-2020 22:40:00 10.6 C 6.34 g/m*3 10.6 C 1.6 km/h
562 06-04-2020 22:45:00 10.4 C 6.17 g/m*3 10.4 C 0 km/h
563 06-04-2020 22:50:00 10.4 C 6.17 g/m*3 10.4 C 0 km/h
564 06-04-2020 22:55:00 10.3 C 6.22 g/m*3 10.3 C 0 km/h
565 06-04-2020 23:00:00 10.2 C 6.19 g/m*3 10.2 C 1.6 km/h
566 06-04-2020 23:05:00 10.2 C 6.19 g/m*3 10.2 C 0 km/h
567 06-04-2020 23:10:00 10.1 C 6.15 g/m*3 10.1 C 0 km/h
568 06-04-2020 23:15:00 10.1 C 6.05 g/m*3 10.1 C 0 km/h
569 06-04-2020 23:20:00 10.1 C 6.15 g/m*3 10.1 C 0 km/h
570 06-04-2020 23:25:00 10.1 C 6.15 g/m*3 10.1 C 0 km/h
571 06-04-2020 23:30:00 10.1 C 6.15 g/m*3 10.1 C 1.6 km/h
572 06-04-2020 23:35:00 9.9 C 6.07 g/m*3 9.9 C 0 km/h
573 06-04-2020 23:40:00 9.8 C 6.03 g/m*3 9.8 C 0 km/h
574 06-04-2020 23:45:00 9.8 C 6.12 g/m*3 9.8 C 0 km/h
575 06-04-2020 23:50:00 9.8 C 6.22 g/m*3 9.8 C 3.2 km/h
Sensor: Nr:Datum:Temp:Abs-Feuchte:Windchill:Wind:
Aussen-T/F 576 06-04-2020 23:55:00 9.9 C 6.35 g/m*3 8.06 C 12.9 km/h
577 07-04-2020 00:00:00 10 C 6.39 g/m*3 8.42 C 11.3 km/h
578 07-04-2020 00:05:00 10.1 C 6.43 g/m*3 10.1 C 3.2 km/h
579 07-04-2020 00:10:00 10.1 C 6.52 g/m*3 10.1 C 1.6 km/h
580 07-04-2020 00:15:00 9.8 C 6.4 g/m*3 9.8 C 1.6 km/h
581 07-04-2020 00:20:00 9.6 C 6.41 g/m*3 9.6 C 0 km/h
582 07-04-2020 00:25:00 9.4 C 6.33 g/m*3 9.4 C 0 km/h
583 07-04-2020 00:30:00 9.3 C 6.29 g/m*3 9.3 C 1.6 km/h
584 07-04-2020 00:35:00 9.3 C 6.29 g/m*3 9.3 C 0 km/h
585 07-04-2020 00:40:00 9.3 C 6.29 g/m*3 9.3 C 1.6 km/h
586 07-04-2020 00:45:00 9.3 C 6.29 g/m*3 9.3 C 1.6 km/h
587 07-04-2020 00:50:00 9.3 C 6.29 g/m*3 9.3 C 0 km/h
588 07-04-2020 00:55:00 9.3 C 6.38 g/m*3 9.3 C 0 km/h
589 07-04-2020 01:00:00 9.2 C 6.34 g/m*3 9.2 C 0 km/h
590 07-04-2020 01:05:00 9.2 C 6.43 g/m*3 9.2 C 0 km/h
591 07-04-2020 01:10:00 9.2 C 6.43 g/m*3 9.2 C 0 km/h
592 07-04-2020 01:15:00 9.3 C 6.47 g/m*3 9.3 C 0 km/h
593 07-04-2020 01:20:00 9.4 C 6.42 g/m*3 9.4 C 1.6 km/h
594 07-04-2020 01:25:00 9.6 C 6.6 g/m*3 9.6 C 0 km/h
595 07-04-2020 01:30:00 9.7 C 6.55 g/m*3 9.7 C 3.2 km/h
596 07-04-2020 01:35:00 9.8 C 6.49 g/m*3 9.8 C 4.8 km/h
597 07-04-2020 01:40:00 10 C 6.86 g/m*3 10 C 4.8 km/h
598 07-04-2020 01:45:00 10.2 C 6.76 g/m*3 10.2 C 3.2 km/h
599 07-04-2020 01:50:00 10.3 C 6.8 g/m*3 10.3 C 0 km/h
600 07-04-2020 01:55:00 10.3 C 6.7 g/m*3 10.3 C 0 km/h
Sensor: Nr:Datum:Temp:Abs-Feuchte:Windchill:Wind:
Aussen-T/F 601 07-04-2020 02:00:00 10.3 C 6.7 g/m*3 10.3 C 0 km/h
602 07-04-2020 02:05:00 10.1 C 6.71 g/m*3 10.1 C 0 km/h
603 07-04-2020 02:10:00 9.9 C 6.63 g/m*3 9.9 C 0 km/h
604 07-04-2020 02:15:00 9.8 C 6.59 g/m*3 9.8 C 0 km/h
605 07-04-2020 02:20:00 9.6 C 6.6 g/m*3 9.6 C 0 km/h
606 07-04-2020 02:25:00 9.3 C 6.56 g/m*3 9.3 C 0 km/h
607 07-04-2020 02:30:00 9.1 C 6.57 g/m*3 9.1 C 0 km/h
608 07-04-2020 02:35:00 8.9 C 6.48 g/m*3 8.9 C 0 km/h
609 07-04-2020 02:40:00 8.8 C 6.53 g/m*3 8.8 C 0 km/h
610 07-04-2020 02:45:00 8.6 C 6.44 g/m*3 8.6 C 0 km/h
611 07-04-2020 02:50:00 8.3 C 6.41 g/m*3 8.3 C 0 km/h
612 07-04-2020 02:55:00 8.2 C 6.45 g/m*3 8.2 C 3.2 km/h
613 07-04-2020 03:00:00 8.2 C 6.53 g/m*3 8.2 C 0 km/h
614 07-04-2020 03:05:00 8.1 C 6.49 g/m*3 8.1 C 0 km/h
615 07-04-2020 03:10:00 8.1 C 6.57 g/m*3 8.1 C 0 km/h
616 07-04-2020 03:15:00 8 C 6.53 g/m*3 8 C 0 km/h
617 07-04-2020 03:20:00 8.1 C 6.66 g/m*3 8.1 C 0 km/h
618 07-04-2020 03:25:00 8.1 C 6.74 g/m*3 8.1 C 0 km/h
619 07-04-2020 03:30:00 8.2 C 6.7 g/m*3 8.2 C 0 km/h
620 07-04-2020 03:35:00 8.2 C 6.7 g/m*3 8.2 C 0 km/h
621 07-04-2020 03:40:00 8.2 C 6.7 g/m*3 8.2 C 0 km/h
622 07-04-2020 03:45:00 8.2 C 6.7 g/m*3 8.2 C 1.6 km/h
623 07-04-2020 03:50:00 8.2 C 6.78 g/m*3 8.2 C 0 km/h
624 07-04-2020 03:55:00 8.2 C 6.78 g/m*3 8.2 C 0 km/h
625 07-04-2020 04:00:00 8.2 C 6.78 g/m*3 8.2 C 0 km/h
Sensor: Nr:Datum:Temp:Abs-Feuchte:Windchill:Wind:
Aussen-T/F 626 07-04-2020 04:05:00 8.3 C 6.83 g/m*3 8.3 C 0 km/h
627 07-04-2020 04:10:00 8.3 C 6.83 g/m*3 8.3 C 0 km/h
628 07-04-2020 04:15:00 8.2 C 6.78 g/m*3 8.2 C 0 km/h
629 07-04-2020 04:20:00 8.2 C 6.7 g/m*3 8.2 C 0 km/h
630 07-04-2020 04:25:00 8.2 C 6.7 g/m*3 8.2 C 0 km/h
631 07-04-2020 04:30:00 8.1 C 6.66 g/m*3 8.1 C 0 km/h
632 07-04-2020 04:35:00 7.9 C 6.57 g/m*3 7.9 C 0 km/h
633 07-04-2020 04:40:00 7.7 C 6.57 g/m*3 7.7 C 0 km/h
634 07-04-2020 04:45:00 7.6 C 6.61 g/m*3 7.6 C 0 km/h
635 07-04-2020 04:50:00 7.6 C 6.61 g/m*3 7.6 C 0 km/h
636 07-04-2020 04:55:00 7.5 C 6.56 g/m*3 7.5 C 0 km/h
637 07-04-2020 05:00:00 7.3 C 6.48 g/m*3 7.3 C 0 km/h
638 07-04-2020 05:05:00 7.2 C 6.52 g/m*3 7.2 C 0 km/h
639 07-04-2020 05:10:00 7.1 C 6.47 g/m*3 7.1 C 0 km/h
640 07-04-2020 05:15:00 6.9 C 6.39 g/m*3 6.9 C 0 km/h
641 07-04-2020 05:20:00 6.8 C 6.42 g/m*3 6.8 C 0 km/h
642 07-04-2020 05:25:00 6.7 C 6.38 g/m*3 6.7 C 0 km/h
643 07-04-2020 05:30:00 6.7 C 6.46 g/m*3 6.7 C 0 km/h
644 07-04-2020 05:35:00 6.6 C 6.42 g/m*3 6.6 C 0 km/h
645 07-04-2020 05:40:00 6.4 C 6.33 g/m*3 6.4 C 0 km/h
646 07-04-2020 05:45:00 6.4 C 6.41 g/m*3 6.4 C 0 km/h
647 07-04-2020 05:50:00 6.3 C 6.37 g/m*3 6.3 C 0 km/h
648 07-04-2020 05:55:00 6.3 C 6.44 g/m*3 6.3 C 0 km/h
649 07-04-2020 06:00:00 6.3 C 6.44 g/m*3 6.3 C 0 km/h
650 07-04-2020 06:05:00 6.3 C 6.44 g/m*3 6.3 C 0 km/h
Sensor: Nr:Datum:Temp:Abs-Feuchte:Windchill:Wind:
Aussen-T/F 651 07-04-2020 06:10:00 6.2 C 6.32 g/m*3 6.2 C 0 km/h
652 07-04-2020 06:15:00 6.1 C 6.36 g/m*3 6.1 C 0 km/h
653 07-04-2020 06:20:00 6.1 C 6.36 g/m*3 6.1 C 0 km/h
654 07-04-2020 06:25:00 6.1 C 6.36 g/m*3 6.1 C 0 km/h
655 07-04-2020 06:30:00 5.9 C 6.27 g/m*3 5.9 C 0 km/h
656 07-04-2020 06:35:00 5.8 C 6.23 g/m*3 5.8 C 0 km/h
657 07-04-2020 06:40:00 5.8 C 6.3 g/m*3 5.8 C 0 km/h
658 07-04-2020 06:45:00 5.8 C 6.3 g/m*3 5.8 C 0 km/h
659 07-04-2020 06:50:00 5.7 C 6.26 g/m*3 5.7 C 0 km/h
660 07-04-2020 06:55:00 5.6 C 6.22 g/m*3 5.6 C 0 km/h
661 07-04-2020 07:00:00 5.5 C 6.18 g/m*3 5.5 C 0 km/h
662 07-04-2020 07:05:00 5.4 C 6.21 g/m*3 5.4 C 0 km/h
663 07-04-2020 07:10:00 5.4 C 6.21 g/m*3 5.4 C 0 km/h
664 07-04-2020 07:15:00 5.4 C 6.28 g/m*3 5.4 C 0 km/h
665 07-04-2020 07:20:00 5.5 C 6.32 g/m*3 5.5 C 0 km/h
666 07-04-2020 07:25:00 5.6 C 6.36 g/m*3 5.6 C 0 km/h
667 07-04-2020 07:30:00 5.6 C 6.43 g/m*3 5.6 C 0 km/h
668 07-04-2020 07:35:00 5.7 C 6.4 g/m*3 5.7 C 0 km/h
669 07-04-2020 07:40:00 5.8 C 6.52 g/m*3 5.8 C 0 km/h
670 07-04-2020 07:45:00 5.9 C 6.56 g/m*3 5.9 C 0 km/h
671 07-04-2020 07:50:00 6 C 6.6 g/m*3 6 C 0 km/h
672 07-04-2020 07:55:00 6.1 C 6.58 g/m*3 6.1 C 0 km/h
673 07-04-2020 08:00:00 6.2 C 6.62 g/m*3 6.2 C 0 km/h
674 07-04-2020 08:05:00 6.2 C 6.62 g/m*3 6.2 C 0 km/h
675 07-04-2020 08:10:00 6.3 C 6.66 g/m*3 6.3 C 0 km/h
Sensor: Nr:Datum:Temp:Abs-Feuchte:Windchill:Wind:
Aussen-T/F 676 07-04-2020 08:15:00 6.3 C 6.66 g/m*3 6.3 C 1.6 km/h
677 07-04-2020 08:20:00 6.4 C 6.71 g/m*3 6.4 C 0 km/h
678 07-04-2020 08:25:00 6.5 C 6.67 g/m*3 6.5 C 0 km/h
679 07-04-2020 08:30:00 6.6 C 6.72 g/m*3 6.6 C 0 km/h
680 07-04-2020 08:35:00 6.6 C 6.72 g/m*3 6.6 C 1.6 km/h
681 07-04-2020 08:40:00 6.6 C 6.72 g/m*3 6.6 C 0 km/h
682 07-04-2020 08:45:00 6.7 C 6.84 g/m*3 6.7 C 0 km/h
683 07-04-2020 08:50:00 6.8 C 6.88 g/m*3 6.8 C 0 km/h
684 07-04-2020 08:55:00 6.9 C 6.93 g/m*3 6.9 C 0 km/h
685 07-04-2020 09:00:00 7.1 C 7.02 g/m*3 7.1 C 0 km/h
686 07-04-2020 09:05:00 7.2 C 7.06 g/m*3 7.2 C 0 km/h
687 07-04-2020 09:10:00 7.3 C 7.03 g/m*3 7.3 C 0 km/h
688 07-04-2020 09:15:00 7.4 C 7.08 g/m*3 7.4 C 0 km/h
689 07-04-2020 09:20:00 7.5 C 7.2 g/m*3 7.5 C 0 km/h
690 07-04-2020 09:25:00 7.6 C 7.25 g/m*3 7.6 C 0 km/h
691 07-04-2020 09:30:00 7.8 C 7.35 g/m*3 7.8 C 0 km/h
692 07-04-2020 09:35:00 7.9 C 7.39 g/m*3 7.9 C 0 km/h
693 07-04-2020 09:40:00 8.2 C 7.54 g/m*3 8.2 C 0 km/h
694 07-04-2020 09:45:00 8.4 C 7.63 g/m*3 8.4 C 0 km/h
695 07-04-2020 09:50:00 8.7 C 7.61 g/m*3 8.7 C 0 km/h
696 07-04-2020 09:55:00 8.9 C 7.71 g/m*3 8.9 C 0 km/h
697 07-04-2020 10:00:00 9.2 C 7.77 g/m*3 9.2 C 0 km/h
698 07-04-2020 10:05:00 9.4 C 7.87 g/m*3 9.4 C 0 km/h
699 07-04-2020 10:10:00 9.6 C 8.06 g/m*3 9.6 C 0 km/h
700 07-04-2020 10:15:00 9.9 C 8.22 g/m*3 9.9 C 0 km/h
Sensor: Nr:Datum:Temp:Abs-Feuchte:Windchill:Wind:
Aussen-T/F 701 07-04-2020 10:20:00 10.2 C 8.28 g/m*3 10.2 C 0 km/h
702 07-04-2020 10:25:00 10.5 C 8.34 g/m*3 10.5 C 0 km/h
703 07-04-2020 10:30:00 10.8 C 8.4 g/m*3 10.8 C 0 km/h
704 07-04-2020 10:35:00 11.2 C 8.62 g/m*3 11.2 C 0 km/h
705 07-04-2020 10:40:00 11.4 C 8.62 g/m*3 11.4 C 0 km/h
706 07-04-2020 10:45:00 11.8 C 8.74 g/m*3 11.8 C 0 km/h
707 07-04-2020 10:50:00 12.2 C 8.85 g/m*3 12.2 C 0 km/h
708 07-04-2020 10:55:00 12.6 C 8.96 g/m*3 12.6 C 0 km/h
709 07-04-2020 11:00:00 13 C 8.96 g/m*3 13 C 1.6 km/h
710 07-04-2020 11:05:00 13.4 C 8.95 g/m*3 13.4 C 0 km/h
711 07-04-2020 11:10:00 13.8 C 9.06 g/m*3 13.8 C 0 km/h
712 07-04-2020 11:15:00 14.2 C 9.04 g/m*3 14.2 C 3.2 km/h
713 07-04-2020 11:20:00 14.6 C 9.13 g/m*3 14.6 C 0 km/h
714 07-04-2020 11:25:00 14.8 C 9.25 g/m*3 14.8 C 1.6 km/h
715 07-04-2020 11:30:00 15.1 C 9.16 g/m*3 15.1 C 3.2 km/h
716 07-04-2020 11:35:00 15.4 C 9.2 g/m*3 15.4 C 1.6 km/h
717 07-04-2020 11:40:00 15.7 C 9.1 g/m*3 15.7 C 1.6 km/h
718 07-04-2020 11:45:00 16.1 C 9.18 g/m*3 16.1 C 3.2 km/h
719 07-04-2020 11:50:00 16.2 C 9.24 g/m*3 16.2 C 3.2 km/h
720 07-04-2020 11:55:00 16.4 C 9.21 g/m*3 16.4 C 3.2 km/h
721 07-04-2020 12:00:00 16.6 C 9.18 g/m*3 16.6 C 3.2 km/h
722 07-04-2020 12:05:00 16.8 C 9.15 g/m*3 16.8 C 3.2 km/h
723 07-04-2020 12:10:00 17.1 C 9.17 g/m*3 17.1 C 3.2 km/h
724 07-04-2020 12:15:00 17.2 C 9.08 g/m*3 17.2 C 4.8 km/h
725 07-04-2020 12:20:00 17.4 C 9.34 g/m*3 17.4 C 3.2 km/h
Sensor: Nr:Datum:Temp:Abs-Feuchte:Windchill:Wind:
Aussen-T/F 726 07-04-2020 12:25:00 17.6 C 9.15 g/m*3 17.6 C 4.8 km/h
727 07-04-2020 12:30:00 17.8 C 9.26 g/m*3 17.8 C 6.4 km/h
728 07-04-2020 12:35:00 18 C 9.22 g/m*3 18 C 4.8 km/h
729 07-04-2020 12:40:00 18.2 C 9.33 g/m*3 18.2 C 3.2 km/h
730 07-04-2020 12:45:00 18.3 C 9.22 g/m*3 18.3 C 4.8 km/h
731 07-04-2020 12:50:00 18.4 C 9.28 g/m*3 18.4 C 4.8 km/h
732 07-04-2020 12:55:00 18.5 C 9.33 g/m*3 18.5 C 3.2 km/h
733 07-04-2020 13:00:00 18.6 C 9.39 g/m*3 18.6 C 4.8 km/h
734 07-04-2020 13:05:00 18.8 C 9.34 g/m*3 18.8 C 3.2 km/h
735 07-04-2020 13:10:00 18.9 C 9.23 g/m*3 18.9 C 6.4 km/h
736 07-04-2020 13:15:00 19.2 C 9.23 g/m*3 19.2 C 6.4 km/h
737 07-04-2020 13:20:00 19.3 C 9.29 g/m*3 19.3 C 3.2 km/h
738 07-04-2020 13:25:00 19.4 C 8.84 g/m*3 19.4 C 6.4 km/h
739 07-04-2020 13:30:00 19.5 C 9.06 g/m*3 19.5 C 4.8 km/h
740 07-04-2020 13:35:00 19.6 C 9.12 g/m*3 19.6 C 6.4 km/h
741 07-04-2020 13:40:00 19.7 C 9 g/m*3 19.7 C 3.2 km/h
742 07-04-2020 13:45:00 19.8 C 9.05 g/m*3 19.8 C 6.4 km/h
743 07-04-2020 13:50:00 19.9 C 8.93 g/m*3 19.9 C 8.1 km/h
744 07-04-2020 13:55:00 20.1 C 9.04 g/m*3 20.1 C 11.3 km/h
745 07-04-2020 14:00:00 20.3 C 8.97 g/m*3 20.3 C 8.1 km/h
746 07-04-2020 14:05:00 20.3 C 8.97 g/m*3 20.3 C 8.1 km/h
747 07-04-2020 14:10:00 20.4 C 9.02 g/m*3 20.4 C 11.3 km/h
748 07-04-2020 14:15:00 20.6 C 8.95 g/m*3 20.6 C 6.4 km/h
749 07-04-2020 14:20:00 20.8 C 9.23 g/m*3 20.8 C 3.2 km/h
750 07-04-2020 14:25:00 20.9 C 8.92 g/m*3 20.9 C 11.3 km/h
Sensor: Nr:Datum:Temp:Abs-Feuchte:Windchill:Wind:
Aussen-T/F 751 07-04-2020 14:30:00 21.1 C 9.21 g/m*3 21.1 C 6.4 km/h
752 07-04-2020 14:35:00 21.3 C 8.95 g/m*3 21.3 C 8.1 km/h
753 07-04-2020 14:40:00 21.3 C 8.95 g/m*3 21.3 C 12.9 km/h
754 07-04-2020 14:45:00 21.2 C 8.9 g/m*3 21.2 C 8.1 km/h
755 07-04-2020 14:50:00 21.1 C 8.84 g/m*3 21.1 C 8.1 km/h
756 07-04-2020 14:55:00 21.2 C 8.9 g/m*3 21.2 C 4.8 km/h
757 07-04-2020 15:00:00 21.4 C 8.81 g/m*3 21.4 C 11.3 km/h
758 07-04-2020 15:05:00 21.6 C 8.91 g/m*3 21.6 C 11.3 km/h
759 07-04-2020 15:10:00 21.7 C 8.97 g/m*3 21.7 C 8.1 km/h
760 07-04-2020 15:15:00 21.8 C 8.83 g/m*3 21.8 C 8.1 km/h
761 07-04-2020 15:20:00 21.8 C 8.63 g/m*3 21.8 C 6.4 km/h
762 07-04-2020 15:25:00 21.8 C 8.63 g/m*3 21.8 C 8.1 km/h
763 07-04-2020 15:30:00 21.9 C 8.68 g/m*3 21.9 C 9.7 km/h
764 07-04-2020 15:35:00 21.9 C 8.49 g/m*3 21.9 C 12.9 km/h
765 07-04-2020 15:40:00 22.1 C 8.59 g/m*3 22.1 C 11.3 km/h
766 07-04-2020 15:45:00 22.1 C 8.78 g/m*3 22.1 C 9.7 km/h
767 07-04-2020 15:50:00 22.1 C 8.78 g/m*3 22.1 C 11.3 km/h
768 07-04-2020 15:55:00 22.2 C 8.64 g/m*3 22.2 C 12.9 km/h
769 07-04-2020 16:00:00 22.3 C 8.49 g/m*3 22.3 C 9.7 km/h
770 07-04-2020 16:05:00 22.3 C 8.49 g/m*3 22.3 C 9.7 km/h
771 07-04-2020 16:10:00 22.3 C 8.49 g/m*3 22.3 C 4.8 km/h
772 07-04-2020 16:15:00 22.2 C 8.44 g/m*3 22.2 C 3.2 km/h
773 07-04-2020 16:20:00 22.2 C 8.44 g/m*3 22.2 C 11.3 km/h
774 07-04-2020 16:25:00 22.4 C 8.34 g/m*3 22.4 C 9.7 km/h
775 07-04-2020 16:30:00 22.5 C 8.39 g/m*3 22.5 C 12.9 km/h
Sensor: Nr:Datum:Temp:Abs-Feuchte:Windchill:Wind:
Aussen-T/F 776 07-04-2020 16:35:00 22.3 C 8.29 g/m*3 22.3 C 6.4 km/h
777 07-04-2020 16:40:00 22.1 C 8.2 g/m*3 22.1 C 6.4 km/h
778 07-04-2020 16:45:00 22.3 C 8.49 g/m*3 22.3 C 4.8 km/h
779 07-04-2020 16:50:00 22.9 C 8.17 g/m*3 22.9 C 6.4 km/h
780 07-04-2020 16:55:00 23.4 C 8.41 g/m*3 23.4 C 4.8 km/h
781 07-04-2020 17:00:00 23.9 C 8.22 g/m*3 23.9 C 8.1 km/h
782 07-04-2020 17:05:00 24.1 C 7.88 g/m*3 24.1 C 8.1 km/h
783 07-04-2020 17:10:00 23.9 C 8 g/m*3 23.9 C 11.3 km/h
784 07-04-2020 17:15:00 23.4 C 7.99 g/m*3 23.4 C 6.4 km/h
785 07-04-2020 17:20:00 23.2 C 7.9 g/m*3 23.2 C 3.2 km/h
786 07-04-2020 17:25:00 22.9 C 8.17 g/m*3 22.9 C 1.6 km/h
787 07-04-2020 17:30:00 22.8 C 7.52 g/m*3 22.8 C 6.4 km/h
788 07-04-2020 17:35:00 22.8 C 7.32 g/m*3 22.8 C 6.4 km/h
789 07-04-2020 17:40:00 23.1 C 7.44 g/m*3 23.1 C 6.4 km/h
790 07-04-2020 17:45:00 23.4 C 7.36 g/m*3 23.4 C 4.8 km/h
791 07-04-2020 17:50:00 23.4 C 7.15 g/m*3 23.4 C 3.2 km/h
792 07-04-2020 17:55:00 23.4 C 7.36 g/m*3 23.4 C 6.4 km/h
793 07-04-2020 18:00:00 23.6 C 7.66 g/m*3 23.6 C 9.7 km/h
794 07-04-2020 18:05:00 23.6 C 7.66 g/m*3 23.6 C 9.7 km/h
795 07-04-2020 18:10:00 23.8 C 7.53 g/m*3 23.8 C 3.2 km/h
796 07-04-2020 18:15:00 23.9 C 7.57 g/m*3 23.9 C 4.8 km/h
797 07-04-2020 18:20:00 23.8 C 7.53 g/m*3 23.8 C 8.1 km/h
798 07-04-2020 18:25:00 23.8 C 7.74 g/m*3 23.8 C 4.8 km/h
799 07-04-2020 18:30:00 23.6 C 7.66 g/m*3 23.6 C 8.1 km/h
800 07-04-2020 18:35:00 23.4 C 7.78 g/m*3 23.4 C 9.7 km/h
Sensor: Nr:Datum:Temp:Abs-Feuchte:Windchill:Wind:
Aussen-T/F 801 07-04-2020 18:40:00 23.1 C 7.86 g/m*3 23.1 C 9.7 km/h
802 07-04-2020 18:45:00 23.1 C 8.27 g/m*3 23.1 C 1.6 km/h
803 07-04-2020 18:50:00 23 C 7.81 g/m*3 23 C 3.2 km/h
804 07-04-2020 18:55:00 22.9 C 7.56 g/m*3 22.9 C 6.4 km/h
805 07-04-2020 19:00:00 22.7 C 7.48 g/m*3 22.7 C 6.4 km/h
806 07-04-2020 19:05:00 22.7 C 7.68 g/m*3 22.7 C 1.6 km/h
807 07-04-2020 19:10:00 22.6 C 8.04 g/m*3 22.6 C 1.6 km/h
808 07-04-2020 19:15:00 22.4 C 8.54 g/m*3 22.4 C 3.2 km/h
809 07-04-2020 19:20:00 22.1 C 8.78 g/m*3 22.1 C 3.2 km/h
810 07-04-2020 19:25:00 21.6 C 8.53 g/m*3 21.6 C 3.2 km/h
811 07-04-2020 19:30:00 21 C 8.61 g/m*3 21 C 3.2 km/h
812 07-04-2020 19:35:00 20.4 C 8.67 g/m*3 20.4 C 3.2 km/h
813 07-04-2020 19:40:00 19.9 C 8.42 g/m*3 19.9 C 6.4 km/h
814 07-04-2020 19:45:00 19.4 C 8.51 g/m*3 19.4 C 4.8 km/h
815 07-04-2020 19:50:00 19.1 C 8.36 g/m*3 19.1 C 4.8 km/h
816 07-04-2020 19:55:00 18.7 C 8.33 g/m*3 18.7 C 6.4 km/h
817 07-04-2020 20:00:00 18.3 C 8.13 g/m*3 18.3 C 6.4 km/h
818 07-04-2020 20:05:00 17.9 C 7.94 g/m*3 17.9 C 6.4 km/h
819 07-04-2020 20:10:00 17.6 C 7.95 g/m*3 17.6 C 4.8 km/h
820 07-04-2020 20:15:00 17.3 C 7.96 g/m*3 17.3 C 4.8 km/h
821 07-04-2020 20:20:00 17 C 7.96 g/m*3 17 C 6.4 km/h
822 07-04-2020 20:25:00 16.8 C 8.01 g/m*3 16.8 C 6.4 km/h
823 07-04-2020 20:30:00 16.6 C 8.05 g/m*3 16.6 C 6.4 km/h
824 07-04-2020 20:35:00 16.3 C 7.91 g/m*3 16.3 C 8.1 km/h
825 07-04-2020 20:40:00 16.2 C 8.14 g/m*3 16.2 C 4.8 km/h
Sensor: Nr:Datum:Temp:Abs-Feuchte:Windchill:Wind:
Aussen-T/F 826 07-04-2020 20:45:00 16 C 8.04 g/m*3 16 C 4.8 km/h
827 07-04-2020 20:50:00 15.8 C 8.08 g/m*3 15.8 C 4.8 km/h
828 07-04-2020 20:55:00 15.7 C 8.03 g/m*3 15.7 C 4.8 km/h
829 07-04-2020 21:00:00 15.6 C 7.98 g/m*3 15.6 C 6.4 km/h
830 07-04-2020 21:05:00 15.4 C 8.01 g/m*3 15.4 C 6.4 km/h
831 07-04-2020 21:10:00 15.3 C 8.1 g/m*3 15.3 C 4.8 km/h
832 07-04-2020 21:15:00 15.2 C 8.18 g/m*3 15.2 C 6.4 km/h
833 07-04-2020 21:20:00 15.1 C 8.26 g/m*3 15.1 C 6.4 km/h
834 07-04-2020 21:25:00 14.9 C 8.16 g/m*3 14.9 C 6.4 km/h
835 07-04-2020 21:30:00 14.8 C 8.23 g/m*3 14.8 C 4.8 km/h
836 07-04-2020 21:35:00 14.7 C 8.18 g/m*3 14.7 C 6.4 km/h
837 07-04-2020 21:40:00 14.7 C 8.31 g/m*3 14.7 C 4.8 km/h
838 07-04-2020 21:45:00 14.7 C 8.31 g/m*3 14.7 C 4.8 km/h
839 07-04-2020 21:50:00 14.6 C 8.26 g/m*3 14.6 C 6.4 km/h
840 07-04-2020 21:55:00 14.5 C 8.33 g/m*3 14.5 C 4.8 km/h
841 07-04-2020 22:00:00 14.4 C 8.28 g/m*3 14.4 C 4.8 km/h
842 07-04-2020 22:05:00 14.3 C 8.35 g/m*3 14.3 C 4.8 km/h
843 07-04-2020 22:10:00 14.1 C 8.25 g/m*3 14.1 C 3.2 km/h
844 07-04-2020 22:15:00 13.8 C 8.22 g/m*3 13.8 C 0 km/h
845 07-04-2020 22:20:00 13.7 C 8.29 g/m*3 13.7 C 3.2 km/h
846 07-04-2020 22:25:00 13.4 C 8.14 g/m*3 13.4 C 3.2 km/h
847 07-04-2020 22:30:00 13.3 C 8.2 g/m*3 13.3 C 1.6 km/h
848 07-04-2020 22:35:00 13.2 C 8.27 g/m*3 13.2 C 4.8 km/h
849 07-04-2020 22:40:00 13.2 C 8.27 g/m*3 13.2 C 1.6 km/h
850 07-04-2020 22:45:00 13.2 C 8.27 g/m*3 13.2 C 0 km/h
Sensor: Nr:Datum:Temp:Abs-Feuchte:Windchill:Wind:
Aussen-T/F 851 07-04-2020 22:50:00 13.2 C 8.27 g/m*3 13.2 C 3.2 km/h
852 07-04-2020 22:55:00 13.1 C 8.22 g/m*3 13.1 C 4.8 km/h
853 07-04-2020 23:00:00 13.1 C 8.22 g/m*3 13.1 C 3.2 km/h
854 07-04-2020 23:05:00 13.1 C 8.33 g/m*3 13.1 C 1.6 km/h
855 07-04-2020 23:10:00 13 C 8.28 g/m*3 13 C 3.2 km/h
856 07-04-2020 23:15:00 13 C 8.39 g/m*3 13 C 4.8 km/h
857 07-04-2020 23:20:00 13 C 8.39 g/m*3 13 C 4.8 km/h
858 07-04-2020 23:25:00 13 C 8.39 g/m*3 13 C 4.8 km/h
859 07-04-2020 23:30:00 13 C 8.39 g/m*3 13 C 1.6 km/h
860 07-04-2020 23:35:00 12.9 C 8.34 g/m*3 12.9 C 4.8 km/h
861 07-04-2020 23:40:00 12.9 C 8.45 g/m*3 12.9 C 4.8 km/h
862 07-04-2020 23:45:00 12.8 C 8.4 g/m*3 12.8 C 3.2 km/h
863 07-04-2020 23:50:00 12.8 C 8.4 g/m*3 12.8 C 1.6 km/h
864 07-04-2020 23:55:00 12.7 C 8.35 g/m*3 12.7 C 1.6 km/h

Legende:
   Min
   Max


Maximal/Minimal-Werte vom 05.04.2020 - 07.04.2020

Sensor Min Max Avg
Temp
(Aussen-T/F)
0.2 °C
05-04-2020  07:05:00
24.3 °C
06-04-2020  16:45:00
11.78 °C
Abs-Feuchte
(Aussen-T/F)
4.55 g/m*3
05-04-2020  06:35:00
9.39 g/m*3
07-04-2020  13:00:00
6.27 g/m*3
Windchill
(Aussen-T/F)
0.2 C
05-04-2020  07:05:00
24.3 C
06-04-2020  16:45:00
11.76 C

Die Daten stammen von einer Davis Vantage Pro 2 Wetter-Station und werden unter Linux mit der Software wview2wettercgi und aufbereitet. Alle Angaben erfolgen ohne Gewähr für ihre Vollständigkeit oder Richtigkeit.
Kontakt: Rainer Krienke krienke@uni-koblenz.de . Meine Webseiten an der Uni Koblenz oder privat.
Version: $Revision: 0.78 $